Davenport, IA

3:58 AM CST on February 06, 2016 (GMT -0600)
Davenport Municipal

Weather History for KDVN - November, 2013

Change the Weather History Date:

Wednesday, November 6, 2013

  Actual Average Record
Temperature  
Mean Temperature 44 °F 44 °F  
Max Temperature 57 °F 53 °F - ()
Min Temperature 30 °F 34 °F - ()
Degree Days  
Heating Degree Days 21 21  
Month to date heating degree days 119 122  
Since 1 July heating degree days 655 682  
Cooling Degree Days 0 0  
Month to date cooling degree days 0 0  
Year to date cooling degree days 938 786  
Moisture  
Dew Point 38 °F    
Average Humidity 77    
Maximum Humidity 96    
Minimum Humidity 58    
Precipitation  
Precipitation 0.49 in 0.10 in - ()
Month to date precipitation 0.73 0.69  
Year to date precipitation 32.80 32.54  
Snow  
Snow 0.00 in - - ()
Month to date snowfall 0.0  
Since 1 July snowfall 2.5  
Since 1 September snowfall 2.5  
Snow Depth 0.00 in    
Sea Level Pressure  
Sea Level Pressure 30.00 in    
Wind  
Wind Speed 14 mph (WNW)    
Max Wind Speed 26 mph    
Max Gust Speed 33 mph    
Visibility 8 miles    
Events Rain    
T = Trace of Precipitation, MM = Missing Value Source: NWS Daily Summary

Daily Weather History Graph

Daily Weather History Graph

Search for Another Location

Airport or City:

Trip Planner

Search our weather history database for the weather conditions in past years. The results will help you decide how hot, cold, wet, or windy it might be!

Date:

Astronomy

Nov. 06, 2013 Rise Set
Actual Time 6:40 AM CST 4:50 PM CST
Civil Twilight 6:11 AM CST 5:19 PM CST
Nautical Twilight 5:38 AM CST 5:53 PM CST
Astronomical Twilight 5:05 AM CST 6:25 PM CST
Moon 9:56 AM CST 7:54 PM CST
Length of Visible Light 11h 08m
Length of Day
10h 10m
Waxing Crescent, 14% of the Moon is Illuminated
Nov 6
Waxing Crescent
Nov 9
First Quarter
Nov 17
Full
Nov 25
Last Quarter
Dec 2
New

Hourly Weather History & Observations

Time (CST) Temp. Windchill Dew Point Humidity Pressure Visibility Wind Dir Wind Speed Gust Speed Precip Events Conditions
12:52 AM 55.0 °F - 53.1 °F 93% 29.86 in 4.0 mi South 18.4 mph 26.5 mph 0.01 in Rain Light Rain
1:52 AM 55.9 °F - 53.1 °F 90% 29.83 in 3.0 mi SSW 12.7 mph 23.0 mph 0.01 in Rain Light Rain
2:52 AM 55.9 °F - 54.0 °F 93% 29.81 in 7.0 mi SSW 13.8 mph 23.0 mph 0.10 in Rain Light Rain
3:52 AM 57.0 °F - 55.0 °F 93% 29.80 in 3.0 mi SSW 13.8 mph 23.0 mph 0.17 in Rain Rain
4:52 AM 57.0 °F - 55.0 °F 93% 29.80 in 4.0 mi SSW 13.8 mph 21.9 mph 0.12 in Rain Rain
5:52 AM 52.0 °F - 50.0 °F 93% 29.77 in 10.0 mi WNW 15.0 mph 25.3 mph 0.05 in Rain Light Rain
5:59 AM 50.0 °F - 48.2 °F 94% 29.81 in 10.0 mi WNW 25.3 mph 31.1 mph 0.01 in Rain Light Rain
6:52 AM 44.1 °F 35.7 °F 41.0 °F 89% 29.84 in 9.0 mi WNW 20.7 mph 28.8 mph 0.02 in Rain Light Rain
7:00 AM 42.8 °F 33.1 °F 41.0 °F 93% 29.85 in 10.0 mi WNW 25.3 mph 29.9 mph 0.00 in Rain Light Rain
7:11 AM 42.8 °F 34.0 °F 41.0 °F 93% 29.85 in 5.0 mi WNW 20.7 mph - 0.00 in   Overcast
7:52 AM 42.1 °F 33.6 °F 39.0 °F 89% 29.90 in 5.0 mi WNW 18.4 mph 26.5 mph 0.00 in Rain Light Rain
8:25 AM 41.0 °F 32.5 °F 37.4 °F 87% 29.91 in 6.0 mi NW 17.3 mph 25.3 mph 0.01 in Rain Light Rain
8:36 AM 41.0 °F 32.8 °F 37.4 °F 87% 29.91 in 6.0 mi NW 16.1 mph - 0.01 in Rain Light Rain
8:52 AM 41.0 °F 32.2 °F 37.9 °F 89% 29.93 in 10.0 mi NW 18.4 mph 26.5 mph 0.01 in   Overcast
9:52 AM 39.9 °F 30.0 °F 37.0 °F 89% 29.97 in 10.0 mi NW 21.9 mph 28.8 mph N/A   Overcast
10:52 AM 41.0 °F 31.6 °F 36.0 °F 82% 29.99 in 10.0 mi NNW 20.7 mph - N/A   Overcast
11:52 AM 42.1 °F 34.9 °F 37.0 °F 82% 30.02 in 10.0 mi NW 13.8 mph 25.3 mph N/A   Overcast
12:52 PM 43.0 °F 34.5 °F 36.0 °F 76% 30.03 in 10.0 mi NW 19.6 mph - N/A   Overcast
1:48 PM 46.4 °F 39.8 °F 37.4 °F 71% 30.05 in 10.0 mi NNW 16.1 mph - N/A   Mostly Cloudy
1:52 PM 46.0 °F 39.6 °F 36.0 °F 68% 30.05 in 10.0 mi NNW 15.0 mph - N/A   Mostly Cloudy
2:52 PM 46.0 °F 39.0 °F 34.0 °F 63% 30.07 in 10.0 mi WNW 17.3 mph 28.8 mph N/A   Partly Cloudy
3:52 PM 45.0 °F 37.6 °F 30.9 °F 58% 30.11 in 10.0 mi NW 17.3 mph 24.2 mph N/A   Clear
4:52 PM 42.1 °F 35.7 °F 30.0 °F 62% 30.14 in 10.0 mi WNW 11.5 mph - N/A   Clear
5:52 PM 37.9 °F 30.0 °F 30.0 °F 73% 30.18 in 10.0 mi WNW 12.7 mph - N/A   Clear
6:52 PM 34.0 °F 27.2 °F 28.0 °F 79% 30.20 in 10.0 mi WNW 8.1 mph - N/A   Clear
7:52 PM 34.0 °F 26.0 °F 28.0 °F 79% 30.21 in 10.0 mi WNW 10.4 mph - N/A   Clear
8:52 PM 33.1 °F 25.5 °F 27.0 °F 78% 30.23 in 10.0 mi WNW 9.2 mph - N/A   Clear
9:52 PM 32.0 °F 24.8 °F 28.0 °F 85% 30.25 in 10.0 mi West 8.1 mph - N/A   Clear
10:52 PM 30.0 °F 24.1 °F 27.0 °F 88% 30.25 in 10.0 mi WNW 5.8 mph - N/A   Clear
11:52 PM 30.0 °F 24.1 °F 26.1 °F 85% 30.26 in 10.0 mi WNW 5.8 mph - N/A   Clear